Weather History for KNMM - September, 2012

Change the Weather History Date:

Monday, September 17, 2012

  Actual Average Record
Temperature  
Mean Temperature 74 °F -  
Max Temperature 80 °F 83 °F 98 °F (2010)
Min Temperature 69 °F 63 °F 52 °F (1999)
Cooling Degree Days 9    
Growing Degree Days 24 (Base 50)    
Moisture  
Dew Point 71 °F    
Average Humidity 93    
Maximum Humidity 100    
Minimum Humidity 78    
Precipitation  
Precipitation 0.28 in - - ()
Sea Level Pressure  
Sea Level Pressure 29.86 in    
Wind  
Wind Speed 4 mph (SE)    
Max Wind Speed 10 mph    
Max Gust Speed 16 mph    
Visibility 7 miles    
Events Fog , Rain    
Averages and records for this station are not official NWS values.
T = Trace of Precipitation, MM = Missing Value Source: NWS Daily Summary

Daily Weather History Graph

Daily Weather History Graph

Search for Another Location

Airport or City:

Trip Planner

Search our weather history database for the weather conditions in past years. The results will help you decide how hot, cold, wet, or windy it might be!

Date:

Astronomy

Sep. 17, 2012 Rise Set
Actual Time 6:39 AM CDT 6:56 PM CDT
Civil Twilight 6:14 AM CDT 7:21 PM CDT
Nautical Twilight 5:46 AM CDT 7:50 PM CDT
Astronomical Twilight 5:16 AM CDT 8:19 PM CDT
Moon 8:18 AM CDT (9/17) 7:50 PM CDT (9/17)
Length of Visible Light 13h 06m
Length of Day
12h 17m
Waxing Crescent, 3% of the Moon is Illuminated
Sep 17
Waxing Crescent
Sep 22
First Quarter
Sep 29
Full
Oct 8
Last Quarter
Oct 15
New

Hourly Weather History & Observations

Time (CDT) Temp. Dew Point Humidity Pressure Visibility Wind Dir Wind Speed Gust Speed Precip Events Conditions
12:56 AM 71.1 °F 69.1 °F 93% 30.00 in 8.0 mi ESE 4.6 mph - 0.00 in Rain Light Rain
1:56 AM 71.1 °F 69.1 °F 93% 29.99 in 9.0 mi ESE 5.8 mph - 0.01 in Rain Light Rain
2:09 AM 71.6 °F 69.8 °F 94% 29.97 in 8.0 mi SE 5.8 mph - 0.00 in Rain Light Rain
2:30 AM 71.6 °F 69.8 °F 94% 29.96 in 9.0 mi SE 3.5 mph - 0.00 in Rain Light Rain
2:56 AM 70.0 °F 69.1 °F 97% 29.97 in 9.0 mi Calm Calm - 0.00 in Rain Light Rain
3:56 AM 71.1 °F 69.1 °F 93% 29.95 in 10.0 mi SE 4.6 mph - 0.00 in Rain Light Rain
4:56 AM 70.0 °F 69.1 °F 97% 29.94 in 8.0 mi Calm Calm - 0.00 in Rain Light Rain
5:05 AM 69.8 °F 69.8 °F 100% 29.92 in 8.0 mi Calm Calm - 0.00 in Rain Light Rain
5:29 AM 69.8 °F 69.8 °F 100% 29.92 in 8.0 mi Calm Calm - 0.00 in Rain Light Rain
5:56 AM 70.0 °F 69.1 °F 97% 29.94 in 7.0 mi ESE 4.6 mph - 0.00 in Rain Light Rain
6:20 AM 69.8 °F 69.8 °F 100% 29.92 in 6.0 mi ESE 4.6 mph - 0.00 in Rain Light Rain
6:44 AM 69.8 °F 69.8 °F 100% 29.92 in 2.0 mi SE 3.5 mph - 0.00 in Rain Light Rain
6:53 AM 70.0 °F 69.1 °F 97% 29.95 in 1.0 mi SE 3.5 mph - 0.00 in Rain Light Rain
7:01 AM 69.8 °F 69.8 °F 100% 29.93 in 0.8 mi SE 3.5 mph - 0.00 in Rain Light Rain
7:10 AM 69.8 °F 69.8 °F 100% 29.93 in 0.8 mi Calm Calm - N/A   Overcast
7:18 AM 71.6 °F 69.8 °F 94% 29.92 in 0.5 mi Calm Calm - N/A Fog Fog
7:29 AM 71.6 °F 69.8 °F 94% 29.93 in 0.2 mi ESE 3.5 mph - N/A Fog Fog
7:56 AM 71.1 °F 70.0 °F 96% 29.94 in 0.5 mi SE 4.6 mph - N/A Fog Fog
8:08 AM 71.6 °F 69.8 °F 94% 29.92 in 1.0 mi SE 3.5 mph - N/A   Overcast
8:51 AM 71.6 °F 71.6 °F 100% 29.92 in 3.0 mi SSE 8.1 mph - N/A   Overcast
8:56 AM 72.0 °F 71.1 °F 97% 29.94 in 4.0 mi SE 8.1 mph - N/A   Overcast
9:19 AM 73.4 °F 71.6 °F 94% 29.92 in 4.0 mi SSE 4.6 mph - 0.11 in Rain Light Rain
9:24 AM 73.4 °F 71.6 °F 94% 29.91 in 9.0 mi SE 5.8 mph - 0.11 in   Overcast
9:37 AM 73.4 °F 71.6 °F 94% 29.91 in 10.0 mi SE 5.8 mph - 0.11 in   Overcast
9:56 AM 73.9 °F 72.0 °F 93% 29.94 in 10.0 mi SSE 4.6 mph - 0.11 in   Overcast
10:56 AM 75.0 °F 72.0 °F 90% 29.92 in 10.0 mi SE 4.6 mph - N/A   Overcast
11:39 AM 75.2 °F 73.4 °F 94% 29.89 in 6.0 mi SSE 4.6 mph - 0.00 in Rain Light Rain
11:56 AM 75.9 °F 73.0 °F 91% 29.90 in 7.0 mi ESE 3.5 mph - 0.02 in Rain Light Rain
12:09 PM 78.8 °F 73.4 °F 83% 29.87 in 10.0 mi SSE 4.6 mph - 0.00 in   Overcast
12:11 PM 78.8 °F 73.4 °F 83% 29.87 in 10.0 mi SSE 4.6 mph - 0.00 in   Overcast
12:13 PM 78.8 °F 73.4 °F 83% 29.87 in 10.0 mi SSE 4.6 mph - 0.00 in   Overcast
12:47 PM 78.8 °F 73.4 °F 83% 29.86 in 10.0 mi SSE 5.8 mph - 0.00 in   Overcast
12:56 PM 79.0 °F 73.9 °F 84% 29.87 in 10.0 mi SE 4.6 mph - 0.00 in   Overcast
1:41 PM 78.8 °F 71.6 °F 78% 29.83 in 9.0 mi South 10.4 mph 16.1 mph 0.00 in Rain Light Rain
1:56 PM 77.0 °F 72.0 °F 84% 29.84 in 10.0 mi South 6.9 mph - 0.00 in   Overcast
2:19 PM 77.0 °F 71.6 °F 83% 29.81 in 9.0 mi South 3.5 mph - 0.00 in Rain Light Rain
2:56 PM 75.9 °F 73.0 °F 91% 29.83 in 5.0 mi SSE 3.5 mph - 0.01 in Rain Light Rain
3:03 PM 75.2 °F 73.4 °F 94% 29.80 in 4.0 mi SSE 6.9 mph - 0.01 in Rain Light Rain
3:28 PM 75.2 °F 73.4 °F 94% 29.78 in 4.0 mi South 3.5 mph - 0.03 in Rain Light Rain
3:40 PM 75.2 °F 73.4 °F 94% 29.77 in 4.0 mi SE 4.6 mph - 0.05 in Rain Light Rain
3:56 PM 75.0 °F 73.0 °F 94% 29.79 in 6.0 mi SSE 5.8 mph - 0.05 in Rain Light Rain
4:10 PM 75.2 °F 73.4 °F 94% 29.77 in 5.0 mi SSE 4.6 mph - 0.01 in Rain Light Rain
4:26 PM 75.2 °F 71.6 °F 89% 29.76 in 5.0 mi SE 6.9 mph - 0.03 in Rain Light Rain
4:37 PM 75.2 °F 71.6 °F 89% 29.75 in 8.0 mi SSE 5.8 mph - 0.03 in   Overcast
4:56 PM 73.9 °F 72.0 °F 93% 29.77 in 6.0 mi SE 5.8 mph - 0.05 in Rain Light Rain
5:22 PM 73.4 °F 71.6 °F 94% 29.74 in 10.0 mi South 8.1 mph - 0.01 in   Overcast
5:56 PM 73.0 °F 70.0 °F 90% 29.76 in 10.0 mi South 5.8 mph - 0.01 in   Overcast
6:32 PM 73.4 °F 69.8 °F 88% 29.74 in 10.0 mi South 5.8 mph - N/A   Overcast
6:56 PM 72.0 °F 69.1 °F 91% 29.76 in 10.0 mi South 5.8 mph - N/A   Overcast
7:56 PM 72.0 °F 69.1 °F 91% 29.77 in 10.0 mi South 3.5 mph - N/A   Overcast
8:44 PM 71.6 °F 69.8 °F 94% 29.75 in 10.0 mi SSE 3.5 mph - N/A   Overcast
8:56 PM 72.0 °F 69.1 °F 91% 29.78 in 10.0 mi Calm Calm - N/A   Overcast
9:22 PM 71.6 °F 69.8 °F 94% 29.76 in 10.0 mi Calm Calm - N/A   Overcast
9:56 PM 72.0 °F 70.0 °F 93% 29.78 in 10.0 mi ESE 3.5 mph - N/A   Overcast
10:14 PM 71.6 °F 69.8 °F 94% 29.76 in 10.0 mi Variable 3.5 mph - N/A   Overcast
10:16 PM 71.6 °F 69.8 °F 94% 29.75 in 10.0 mi ESE 3.5 mph - N/A   Overcast
10:24 PM 71.6 °F 69.8 °F 94% 29.75 in 6.0 mi Calm Calm - 0.00 in Rain Light Rain
10:52 PM 71.6 °F 69.8 °F 94% 29.75 in 7.0 mi Calm Calm - 0.01 in Rain Light Rain
10:56 PM 72.0 °F 70.0 °F 93% 29.78 in 6.0 mi Calm Calm - 0.01 in Rain Light Rain
11:15 PM 71.6 °F 69.8 °F 94% 29.75 in 9.0 mi Calm Calm - 0.01 in   Overcast
11:56 PM 72.0 °F 70.0 °F 93% 29.77 in 9.0 mi Calm Calm - 0.01 in   Overcast